Location: Corocito
(10.1894°N, 67.0986°W)
Time: 11:30:14
(UTC+00:00)

SJ-6B - Pass Details

Date: 29 May 2024
Orbit: 489 x 548 km, 97.4° (Epoch: 16 June)

Event Time Altitude Azimuth Distance (km) Brightness Sun altitude
Exits shadow 23:35:21 18° 114° (ESE) 1,309 4.1 -11.9°
Maximum altitude 23:36:56 24° 78° (ENE) 1,098 3.9 -12.3°
Drops below altitude 10° 23:39:56 10° 23° (NNE) 1,713 5.4 -12.9°
Sets 23:42:16 0° 9° (N) 2,586 6.5 -13.5°
